Flag for U.S.A. Weather past 2 weeks in Milwaukee, Wisconsin, U.S.A.

Now
72 °F

Passing clouds.


Feels Like: 69 °F
Forecast: 69 / 82 °F
Wind: No wind

Location: Milwaukee / Timmerman

Current Time: Jul 29, 2015 at 2:59:38 AM

Latest Report: Jul 29, 2015 at 2:15 AM


Visibility: 10 mi

Pressure: 29.90 "Hg

Humidity: 88%

Dew point: 68 °F

Location of MilwaukeeLocation

Historic Weather in Milwaukee — Graph

°F

Milwaukee temperature yesterday

Maximum temperature yesterday: 88 °F (at 1:45 PM)
Minimum temperature yesterday: 63 °F (at 3:35 AM)
Average temperature yesterday: 73 °F

Past Weeks' High & Low Weather Summary

 TemperatureHumidityPressure
High88 °F (Jul 17, 2:45 PM)94% (Jul 16, 10:55 PM)30.07 "Hg (Jul 16, 10:55 PM)
Low50 °F (Jul 15, 4:55 AM)32% (Jul 21, 4:45 PM)29.54 "Hg (Jul 14, 1:15 AM)
Average69 °F69%29.91 "Hg
* Reported Jul 14 1:15 AM — Jul 29 1:55 AM, Milwaukee, Weather by CustomWeather, © 2015

Note: Actual official high and low records may vary slightly from our data, if they occured in-between our weather recording intervals... More about our weather records

Advertising

Milwaukee weather history for previous 24 hours

 ConditionsComfort  
Time TempWeatherWind HumidityBarometerVisibility
1:55 AM
Wed, Jul 29
72 °FPassing clouds.No wind83%29.91 "Hg10 mi
1:15 AM73 °FClear.No wind78%29.92 "Hg10 mi
12:55 AM73 °FClear.No wind78%29.93 "Hg10 mi
12:35 AM73 °FClear.No wind78%29.94 "Hg10 mi
12:15 AM73 °FClear.3 mph78%29.95 "Hg10 mi
11:55 PM
Tue, Jul 28
73 °FClear.3 mph74%29.96 "Hg10 mi
11:35 PM75 °FClear.3 mph69%29.95 "Hg10 mi
11:15 PM77 °FClear.6 mph65%29.95 "Hg10 mi
10:55 PM77 °FClear.5 mph65%29.94 "Hg10 mi
10:15 PM79 °FClear.3 mph61%29.93 "Hg10 mi
9:55 PM79 °FClear.5 mph61%29.94 "Hg10 mi
9:35 PM79 °FClear.5 mph61%29.94 "Hg10 mi
9:15 PM79 °FSunny.3 mph61%29.94 "Hg10 mi
6:45 PM82 °FSunny.6 mph55%29.93 "Hg10 mi
5:45 PM82 °FSunny.12 mph55%29.92 "Hg10 mi
4:45 PM82 °FSunny.8 mph51%29.92 "Hg10 mi
3:45 PM82 °FSunny.12 mph51%29.88 "Hg10 mi
2:45 PM84 °FScattered clouds.12 mph45%29.94 "Hg10 mi
1:45 PM88 °FSunny.12 mph40%29.97 "Hg10 mi
12:45 PM86 °FSunny.9 mph43%29.99 "Hg10 mi
11:45 AM84 °FSunny.5 mph40%30.01 "Hg10 mi
10:45 AM82 °FSunny.9 mph42%30.03 "Hg10 mi
9:45 AM82 °FSunny.8 mph48%30.01 "Hg10 mi
8:45 AM79 °FSunny.7 mph58%30.00 "Hg10 mi
7:45 AM73 °FSunny.5 mph74%30.01 "Hg10 mi
7:15 AM68 °FSunny.No wind83%30.02 "Hg10 mi
6:55 AM64 °FSunny.No wind88%30.01 "Hg7 mi
6:35 AM63 °FClear.No wind94%30.01 "Hg7 mi
6:15 AM63 °FClear.No wind94%30.01 "Hg7 mi
5:50 AM63 °FClear.No wind94%30.01 "Hg7 mi
5:35 AM63 °FFog.No wind88%30.01 "Hg5 mi
5:15 AM63 °FClear.No wind88%30.01 "Hg7 mi
4:15 AM64 °FClear.3 mph88%30.01 "Hg10 mi
3:55 AM63 °FClear.No wind88%30.02 "Hg10 mi
3:35 AM63 °FClear.No wind94%30.02 "Hg7 mi
3:15 AM64 °FClear.No wind88%30.03 "Hg10 mi
2:55 AM64 °FClear.No wind88%30.03 "Hg7 mi
2:15 AM64 °FClear.No wind88%30.04 "Hg10 mi
Weather by CustomWeather, © 2015

See weather overviewHow to use our weather pages